Time,TemperatureF,DewpointF,PressureIn,WindDirection,WindDirectionDegrees,WindSpeedMPH,WindSpeedGustMPH,Humidity,HourlyPrecipIn,Conditions,Clouds,dailyrainin,SoftwareType,DateUTC
2013-01-22 00:05:00,12.0,-99.9,-100.00,West,272,26.0,0.0,-999,-99.99,,,-99.99,,2013-01-22 05:05:00,
2013-01-22 00:12:00,12.0,-99.9,-100.00,West,272,26.0,0.0,-999,-99.99,,,-99.99,,2013-01-22 05:12:00,
2013-01-22 00:23:00,12.0,-99.9,-100.00,WNW,283,21.0,31.0,-999,-99.99,,,-99.99,,2013-01-22 05:23:00,
2013-01-22 00:33:00,12.0,-99.9,-100.00,WNW,283,21.0,31.0,-999,-99.99,,,-99.99,,2013-01-22 05:33:00,
2013-01-22 00:43:00,12.0,-99.9,-100.00,WNW,282,23.0,29.0,-999,-99.99,,,-99.99,,2013-01-22 05:43:00,
2013-01-22 00:53:00,12.0,-99.9,-100.00,WNW,282,23.0,29.0,-999,-99.99,,,-99.99,,2013-01-22 05:53:00,
2013-01-22 01:02:00,12.0,-99.9,-100.00,WNW,282,23.0,29.0,-999,-99.99,,,-99.99,,2013-01-22 06:02:00,
2013-01-22 01:12:00,12.0,-99.9,-100.00,WNW,282,23.0,29.0,-999,-99.99,,,-99.99,,2013-01-22 06:12:00,
2013-01-22 01:22:00,11.0,-99.9,-100.00,NW,304,22.0,30.0,-999,-99.99,,,-99.99,,2013-01-22 06:22:00,
2013-01-22 01:33:00,11.0,-99.9,-100.00,NW,304,22.0,30.0,-999,-99.99,,,-99.99,,2013-01-22 06:33:00,
2013-01-22 01:43:00,11.0,-99.9,-100.00,NW,304,22.0,30.0,-999,-99.99,,,-99.99,,2013-01-22 06:43:00,
2013-01-22 01:53:00,11.0,-99.9,-100.00,WNW,293,20.0,30.0,-999,-99.99,,,-99.99,,2013-01-22 06:53:00,
2013-01-22 02:03:00,11.0,-99.9,-100.00,WNW,293,20.0,30.0,-999,-99.99,,,-99.99,,2013-01-22 07:03:00,
2013-01-22 02:12:00,11.0,-99.9,-100.00,WNW,293,20.0,30.0,-999,-99.99,,,-99.99,,2013-01-22 07:12:00,
2013-01-22 02:22:00,10.0,-99.9,-100.00,West,275,24.0,28.0,-999,-99.99,,,-99.99,,2013-01-22 07:22:00,
2013-01-22 02:33:00,10.0,-99.9,-100.00,West,275,24.0,28.0,-999,-99.99,,,-99.99,,2013-01-22 07:33:00,
2013-01-22 02:43:00,10.0,-99.9,-100.00,West,275,24.0,0.0,-999,-99.99,,,-99.99,,2013-01-22 07:43:00,
2013-01-22 02:53:00,10.0,-99.9,-100.00,West,275,24.0,0.0,-999,-99.99,,,-99.99,,2013-01-22 07:53:00,
2013-01-22 03:02:00,10.0,-99.9,-100.00,West,275,24.0,0.0,-999,-99.99,,,-99.99,,2013-01-22 08:02:00,
2013-01-22 03:12:00,10.0,-99.9,-100.00,West,275,24.0,0.0,-999,-99.99,,,-99.99,,2013-01-22 08:12:00,
2013-01-22 03:23:00,10.0,-99.9,-100.00,WNW,282,20.0,27.0,-999,-99.99,,,-99.99,,2013-01-22 08:23:00,
2013-01-22 03:33:00,10.0,-99.9,-100.00,WNW,282,20.0,27.0,-999,-99.99,,,-99.99,,2013-01-22 08:33:00,
2013-01-22 03:43:00,10.0,-99.9,-100.00,West,276,19.0,29.0,-999,-99.99,,,-99.99,,2013-01-22 08:43:00,
2013-01-22 03:53:00,10.0,-99.9,-100.00,West,276,19.0,29.0,-999,-99.99,,,-99.99,,2013-01-22 08:53:00,
2013-01-22 04:02:00,10.0,-99.9,-100.00,West,276,19.0,29.0,-999,-99.99,,,-99.99,,2013-01-22 09:02:00,
2013-01-22 04:12:00,10.0,-99.9,-100.00,West,276,19.0,29.0,-999,-99.99,,,-99.99,,2013-01-22 09:12:00,
2013-01-22 04:23:00,10.0,-99.9,-100.00,WNW,282,19.0,27.0,-999,-99.99,,,-99.99,,2013-01-22 09:23:00,
2013-01-22 04:33:00,10.0,-99.9,-100.00,WNW,282,19.0,27.0,-999,-99.99,,,-99.99,,2013-01-22 09:33:00,
2013-01-22 04:43:00,10.0,-99.9,-100.00,WNW,290,16.0,0.0,-999,-99.99,,,-99.99,,2013-01-22 09:43:00,
2013-01-22 04:53:00,10.0,-99.9,-100.00,WNW,290,16.0,0.0,-999,-99.99,,,-99.99,,2013-01-22 09:53:00,
2013-01-22 05:03:00,10.0,-99.9,-100.00,WNW,290,16.0,0.0,-999,-99.99,,,-99.99,,2013-01-22 10:03:00,
2013-01-22 05:12:00,9.0,-99.9,-100.00,West,280,22.0,31.0,-999,-99.99,,,-99.99,,2013-01-22 10:12:00,
2013-01-22 05:22:00,9.0,-99.9,-100.00,WNW,293,20.0,26.0,-999,-99.99,,,-99.99,,2013-01-22 10:22:00,
2013-01-22 05:33:00,9.0,-99.9,-100.00,WNW,293,20.0,26.0,-999,-99.99,,,-99.99,,2013-01-22 10:33:00,
2013-01-22 05:43:00,9.0,-99.9,-100.00,WNW,293,20.0,26.0,-999,-99.99,,,-99.99,,2013-01-22 10:43:00,
2013-01-22 05:53:00,9.0,-99.9,-100.00,WNW,293,20.0,26.0,-999,-99.99,,,-99.99,,2013-01-22 10:53:00,
2013-01-22 06:03:00,9.0,-99.9,-100.00,West,274,19.0,0.0,-999,-99.99,,,-99.99,,2013-01-22 11:03:00,
2013-01-22 06:12:00,9.0,-99.9,-100.00,West,274,19.0,0.0,-999,-99.99,,,-99.99,,2013-01-22 11:12:00,
2013-01-22 06:23:00,10.0,-99.9,-100.00,West,280,21.0,27.0,-999,-99.99,,,-99.99,,2013-01-22 11:23:00,
2013-01-22 06:33:00,10.0,-99.9,-100.00,West,280,21.0,27.0,-999,-99.99,,,-99.99,,2013-01-22 11:33:00,
2013-01-22 06:43:00,10.0,-99.9,-100.00,West,275,19.0,27.0,-999,-99.99,,,-99.99,,2013-01-22 11:43:00,
2013-01-22 06:54:00,10.0,-99.9,-100.00,West,275,19.0,27.0,-999,-99.99,,,-99.99,,2013-01-22 11:54:00,
2013-01-22 07:04:00,10.0,-99.9,-100.00,West,275,19.0,27.0,-999,-99.99,,,-99.99,,2013-01-22 12:04:00,
2013-01-22 07:13:00,10.0,-99.9,-100.00,West,275,19.0,27.0,-999,-99.99,,,-99.99,,2013-01-22 12:13:00,
2013-01-22 07:23:00,10.0,-99.9,-100.00,WNW,284,20.0,33.0,-999,-99.99,,,-99.99,,2013-01-22 12:23:00,
2013-01-22 07:33:00,10.0,-99.9,-100.00,WNW,284,20.0,33.0,-999,-99.99,,,-99.99,,2013-01-22 12:33:00,
2013-01-22 07:43:00,10.0,-99.9,-100.00,WNW,284,20.0,33.0,-999,-99.99,,,-99.99,,2013-01-22 12:43:00,
2013-01-22 07:53:00,10.0,-99.9,-100.00,WNW,282,17.0,0.0,-999,-99.99,,,-99.99,,2013-01-22 12:53:00,
2013-01-22 08:04:00,10.0,-99.9,-100.00,WNW,282,17.0,0.0,-999,-99.99,,,-99.99,,2013-01-22 13:04:00,
2013-01-22 08:14:00,10.0,-99.9,-100.00,WNW,282,17.0,0.0,-999,-99.99,,,-99.99,,2013-01-22 13:14:00,
2013-01-22 08:24:00,9.0,-99.9,-100.00,WNW,282,19.0,25.0,-999,-99.99,,,-99.99,,2013-01-22 13:24:00,
2013-01-22 08:34:00,9.0,-99.9,-100.00,WNW,282,19.0,25.0,-999,-99.99,,,-99.99,,2013-01-22 13:34:00,
2013-01-22 08:43:00,9.0,-99.9,-100.00,WNW,282,19.0,25.0,-999,-99.99,,,-99.99,,2013-01-22 13:43:00,
2013-01-22 08:54:00,9.0,-99.9,-100.00,WNW,285,18.0,24.0,-999,-99.99,,,-99.99,,2013-01-22 13:54:00,
2013-01-22 09:03:00,9.0,-99.9,-100.00,WNW,285,18.0,24.0,-999,-99.99,,,-99.99,,2013-01-22 14:03:00,
2013-01-22 09:13:00,9.0,-99.9,-100.00,WNW,285,18.0,24.0,-999,-99.99,,,-99.99,,2013-01-22 14:13:00,
2013-01-22 09:23:00,9.0,-99.9,-100.00,WNW,285,19.0,28.0,-999,-99.99,,,-99.99,,2013-01-22 14:23:00,
2013-01-22 09:34:00,9.0,-99.9,-100.00,WNW,285,19.0,28.0,-999,-99.99,,,-99.99,,2013-01-22 14:34:00,
2013-01-22 09:45:00,9.0,-99.9,-100.00,West,270,19.0,28.0,-999,-99.99,,,-99.99,,2013-01-22 14:45:00,
2013-01-22 09:54:00,9.0,-99.9,-100.00,West,270,19.0,28.0,-999,-99.99,,,-99.99,,2013-01-22 14:54:00,
2013-01-22 10:04:00,9.0,-99.9,-100.00,West,270,19.0,28.0,-999,-99.99,,,-99.99,,2013-01-22 15:04:00,
2013-01-22 10:13:00,9.0,-99.9,-100.00,West,270,19.0,28.0,-999,-99.99,,,-99.99,,2013-01-22 15:13:00,
2013-01-22 10:24:00,10.0,-99.9,-100.00,West,274,20.0,26.0,-999,-99.99,,,-99.99,,2013-01-22 15:24:00,
2013-01-22 10:34:00,10.0,-99.9,-100.00,West,264,17.0,27.0,-999,-99.99,,,-99.99,,2013-01-22 15:34:00,
2013-01-22 10:44:00,10.0,-99.9,-100.00,West,264,17.0,27.0,-999,-99.99,,,-99.99,,2013-01-22 15:44:00,
2013-01-22 10:54:00,10.0,-99.9,-100.00,West,264,17.0,27.0,-999,-99.99,,,-99.99,,2013-01-22 15:54:00,
2013-01-22 11:04:00,10.0,-99.9,-100.00,West,264,17.0,27.0,-999,-99.99,,,-99.99,,2013-01-22 16:04:00,
2013-01-22 11:14:00,10.0,-99.9,-100.00,West,264,17.0,27.0,-999,-99.99,,,-99.99,,2013-01-22 16:14:00,
2013-01-22 11:24:00,10.0,-99.9,-100.00,WNW,284,20.0,24.0,-999,-99.99,,,-99.99,,2013-01-22 16:24:00,
2013-01-22 11:34:00,10.0,-99.9,-100.00,WNW,284,20.0,24.0,-999,-99.99,,,-99.99,,2013-01-22 16:34:00,
2013-01-22 11:44:00,10.0,-99.9,-100.00,West,276,16.0,25.0,-999,-99.99,,,-99.99,,2013-01-22 16:44:00,
2013-01-22 11:54:00,10.0,-99.9,-100.00,West,276,16.0,25.0,-999,-99.99,,,-99.99,,2013-01-22 16:54:00,
2013-01-22 12:04:00,10.0,-99.9,-100.00,West,276,16.0,25.0,-999,-99.99,,,-99.99,,2013-01-22 17:04:00,
2013-01-22 12:13:00,10.0,-99.9,-100.00,West,276,16.0,25.0,-999,-99.99,,,-99.99,,2013-01-22 17:13:00,
2013-01-22 12:24:00,10.0,-99.9,-100.00,West,261,17.0,21.0,-999,-99.99,,,-99.99,,2013-01-22 17:24:00,
2013-01-22 12:35:00,10.0,-99.9,-100.00,WSW,258,16.0,26.0,-999,-99.99,,,-99.99,,2013-01-22 17:35:00,
2013-01-22 12:44:00,10.0,-99.9,-100.00,WSW,258,16.0,26.0,-999,-99.99,,,-99.99,,2013-01-22 17:44:00,
2013-01-22 12:54:00,10.0,-99.9,-100.00,WSW,258,16.0,26.0,-999,-99.99,,,-99.99,,2013-01-22 17:54:00,
2013-01-22 13:04:00,10.0,-99.9,-100.00,WSW,258,16.0,26.0,-999,-99.99,,,-99.99,,2013-01-22 18:04:00,
2013-01-22 13:14:00,10.0,-99.9,-100.00,WSW,258,16.0,26.0,-999,-99.99,,,-99.99,,2013-01-22 18:14:00,
2013-01-22 13:24:00,10.0,-99.9,-100.00,West,272,15.0,21.0,-999,-99.99,,,-99.99,,2013-01-22 18:24:00,
2013-01-22 13:34:00,10.0,-99.9,-100.00,West,272,15.0,21.0,-999,-99.99,,,-99.99,,2013-01-22 18:34:00,
2013-01-22 13:44:00,11.0,-99.9,-100.00,WSW,240,16.0,24.0,-999,-99.99,,,-99.99,,2013-01-22 18:44:00,
2013-01-22 13:54:00,11.0,-99.9,-100.00,WSW,240,16.0,24.0,-999,-99.99,,,-99.99,,2013-01-22 18:54:00,
2013-01-22 14:04:00,11.0,-99.9,-100.00,WSW,240,16.0,24.0,-999,-99.99,,,-99.99,,2013-01-22 19:04:00,
2013-01-22 14:14:00,11.0,-99.9,-100.00,WSW,240,16.0,24.0,-999,-99.99,,,-99.99,,2013-01-22 19:14:00,
2013-01-22 14:24:00,11.0,-99.9,-100.00,WSW,242,17.0,23.0,-999,-99.99,,,-99.99,,2013-01-22 19:24:00,
2013-01-22 14:34:00,11.0,-99.9,-100.00,WSW,242,17.0,23.0,-999,-99.99,,,-99.99,,2013-01-22 19:34:00,
2013-01-22 14:44:00,11.0,-99.9,-100.00,WSW,238,17.0,24.0,-999,-99.99,,,-99.99,,2013-01-22 19:44:00,
2013-01-22 14:54:00,11.0,-99.9,-100.00,WSW,238,17.0,24.0,-999,-99.99,,,-99.99,,2013-01-22 19:54:00,
2013-01-22 15:00:00,12.0,-99.9,-100.00,SW,231,19.0,23.0,-999,-99.99,,,-99.99,,2013-01-22 20:00:00,
2013-01-22 15:04:00,11.0,-99.9,-100.00,WSW,238,17.0,24.0,-999,-99.99,,,-99.99,,2013-01-22 20:04:00,
2013-01-22 15:13:00,11.0,-99.9,-100.00,WSW,238,17.0,24.0,-999,-99.99,,,-99.99,,2013-01-22 20:13:00,
2013-01-22 15:23:00,12.0,-99.9,-100.00,SW,231,19.0,23.0,-999,-99.99,,,-99.99,,2013-01-22 20:23:00,
2013-01-22 15:34:00,12.0,-99.9,-100.00,SW,231,19.0,23.0,-999,-99.99,,,-99.99,,2013-01-22 20:34:00,
2013-01-22 15:43:00,12.0,-99.9,-100.00,SW,231,19.0,23.0,-999,-99.99,,,-99.99,,2013-01-22 20:43:00,
2013-01-22 15:54:00,12.0,-99.9,-100.00,SW,231,19.0,23.0,-999,-99.99,,,-99.99,,2013-01-22 20:54:00,
2013-01-22 16:14:00,12.0,-99.9,-100.00,WSW,243,16.0,24.0,-999,-99.99,,,-99.99,,2013-01-22 21:14:00,
2013-01-22 16:23:00,12.0,-99.9,-100.00,WSW,253,14.0,24.0,-999,-99.99,,,-99.99,,2013-01-22 21:23:00,
2013-01-22 16:34:00,12.0,-99.9,-100.00,WSW,253,14.0,24.0,-999,-99.99,,,-99.99,,2013-01-22 21:34:00,
2013-01-22 16:44:00,12.0,-99.9,-100.00,SW,232,15.0,24.0,-999,-99.99,,,-99.99,,2013-01-22 21:44:00,
2013-01-22 16:53:00,12.0,-99.9,-100.00,SW,232,15.0,24.0,-999,-99.99,,,-99.99,,2013-01-22 21:53:00,
2013-01-22 17:03:00,12.0,-99.9,-100.00,SW,232,15.0,24.0,-999,-99.99,,,-99.99,,2013-01-22 22:03:00,
2013-01-22 17:13:00,12.0,-99.9,-100.00,SW,232,15.0,24.0,-999,-99.99,,,-99.99,,2013-01-22 22:13:00,
2013-01-22 17:23:00,14.0,-99.9,-100.00,WSW,252,17.0,23.0,-999,-99.99,,,-99.99,,2013-01-22 22:23:00,
2013-01-22 17:33:00,14.0,-99.9,-100.00,WSW,252,17.0,23.0,-999,-99.99,,,-99.99,,2013-01-22 22:33:00,
2013-01-22 17:44:00,14.0,-99.9,-100.00,WSW,252,17.0,23.0,-999,-99.99,,,-99.99,,2013-01-22 22:44:00,
2013-01-22 17:53:00,13.0,-99.9,-100.00,West,259,14.0,24.0,-999,-99.99,,,-99.99,,2013-01-22 22:53:00,
2013-01-22 18:03:00,13.0,-99.9,-100.00,West,259,14.0,24.0,-999,-99.99,,,-99.99,,2013-01-22 23:03:00,
2013-01-22 18:13:00,13.0,-99.9,-100.00,West,259,14.0,24.0,-999,-99.99,,,-99.99,,2013-01-22 23:13:00,
2013-01-22 18:24:00,14.0,-99.9,-100.00,WSW,254,14.0,25.0,-999,-99.99,,,-99.99,,2013-01-22 23:24:00,
2013-01-22 18:34:00,14.0,-99.9,-100.00,WSW,254,14.0,25.0,-999,-99.99,,,-99.99,,2013-01-22 23:34:00,
2013-01-22 18:43:00,14.0,-99.9,-100.00,WSW,254,14.0,25.0,-999,-99.99,,,-99.99,,2013-01-22 23:43:00,
2013-01-22 18:53:00,14.0,-99.9,-100.00,WSW,244,17.0,27.0,-999,-99.99,,,-99.99,,2013-01-22 23:53:00,
2013-01-22 19:03:00,14.0,-99.9,-100.00,WSW,244,17.0,27.0,-999,-99.99,,,-99.99,,2013-01-23 00:03:00,
2013-01-22 19:13:00,14.0,-99.9,-100.00,WSW,244,17.0,27.0,-999,-99.99,,,-99.99,,2013-01-23 00:13:00,
2013-01-22 19:23:00,14.0,-99.9,-100.00,WSW,258,17.0,21.0,-999,-99.99,,,-99.99,,2013-01-23 00:23:00,
2013-01-22 19:33:00,14.0,-99.9,-100.00,WSW,258,17.0,21.0,-999,-99.99,,,-99.99,,2013-01-23 00:33:00,
2013-01-22 19:43:00,14.0,-99.9,-100.00,WSW,258,17.0,21.0,-999,-99.99,,,-99.99,,2013-01-23 00:43:00,
2013-01-22 19:53:00,14.0,-99.9,-100.00,WSW,238,16.0,23.0,-999,-99.99,,,-99.99,,2013-01-23 00:53:00,
2013-01-22 20:03:00,14.0,-99.9,-100.00,WSW,238,16.0,23.0,-999,-99.99,,,-99.99,,2013-01-23 01:03:00,
2013-01-22 20:13:00,14.0,-99.9,-100.00,WSW,238,16.0,23.0,-999,-99.99,,,-99.99,,2013-01-23 01:13:00,
2013-01-22 20:23:00,15.0,-99.9,-100.00,West,261,17.0,23.0,-999,-99.99,,,-99.99,,2013-01-23 01:23:00,
2013-01-22 20:33:00,15.0,-99.9,-100.00,West,261,17.0,23.0,-999,-99.99,,,-99.99,,2013-01-23 01:33:00,
2013-01-22 20:43:00,15.0,-99.9,-100.00,West,261,17.0,23.0,-999,-99.99,,,-99.99,,2013-01-23 01:43:00,
2013-01-22 20:53:00,15.0,-99.9,-100.00,West,261,17.0,23.0,-999,-99.99,,,-99.99,,2013-01-23 01:53:00,
2013-01-22 21:04:00,15.0,-99.9,-100.00,West,265,14.0,23.0,-999,-99.99,,,-99.99,,2013-01-23 02:04:00,
2013-01-22 21:13:00,15.0,-99.9,-100.00,West,265,14.0,23.0,-999,-99.99,,,-99.99,,2013-01-23 02:13:00,
2013-01-22 21:23:00,15.0,-99.9,-100.00,West,267,14.0,23.0,-999,-99.99,,,-99.99,,2013-01-23 02:23:00,
2013-01-22 21:33:00,15.0,-99.9,-100.00,West,267,14.0,23.0,-999,-99.99,,,-99.99,,2013-01-23 02:33:00,
2013-01-22 21:43:00,15.0,-99.9,-100.00,West,272,19.0,23.0,-999,-99.99,,,-99.99,,2013-01-23 02:43:00,
2013-01-22 21:54:00,15.0,-99.9,-100.00,West,272,19.0,23.0,-999,-99.99,,,-99.99,,2013-01-23 02:54:00,
2013-01-22 22:03:00,15.0,-99.9,-100.00,West,272,19.0,23.0,-999,-99.99,,,-99.99,,2013-01-23 03:03:00,
2013-01-22 22:13:00,15.0,-99.9,-100.00,West,272,19.0,23.0,-999,-99.99,,,-99.99,,2013-01-23 03:13:00,
2013-01-22 22:23:00,16.0,-99.9,-100.00,West,279,16.0,22.0,-999,-99.99,,,-99.99,,2013-01-23 03:23:00,
2013-01-22 22:33:00,16.0,-99.9,-100.00,West,279,16.0,22.0,-999,-99.99,,,-99.99,,2013-01-23 03:33:00,
2013-01-22 22:43:00,16.0,-99.9,-100.00,West,279,16.0,22.0,-999,-99.99,,,-99.99,,2013-01-23 03:43:00,
2013-01-22 22:53:00,16.0,-99.9,-100.00,West,280,18.0,25.0,-999,-99.99,,,-99.99,,2013-01-23 03:53:00,
2013-01-22 23:00:00,15.0,-99.9,-100.00,West,268,16.0,23.0,-999,-99.99,,,-99.99,,2013-01-23 04:00:00,
2013-01-22 23:04:00,16.0,-99.9,-100.00,West,280,18.0,25.0,-999,-99.99,,,-99.99,,2013-01-23 04:04:00,
2013-01-22 23:13:00,16.0,-99.9,-100.00,West,280,18.0,25.0,-999,-99.99,,,-99.99,,2013-01-23 04:13:00,
2013-01-22 23:23:00,15.0,-99.9,-100.00,West,268,16.0,23.0,-999,-99.99,,,-99.99,,2013-01-23 04:23:00,
2013-01-22 23:33:00,15.0,-99.9,-100.00,West,268,16.0,23.0,-999,-99.99,,,-99.99,,2013-01-23 04:33:00,
2013-01-22 23:43:00,15.0,-99.9,-100.00,West,268,16.0,23.0,-999,-99.99,,,-99.99,,2013-01-23 04:43:00,
2013-01-22 23:53:00,15.0,-99.9,-100.00,West,268,16.0,23.0,-999,-99.99,,,-99.99,,2013-01-23 04:53:00,